Stations météo

Publicité
Limoges, France (7434): Température de l'air & dewpoint: 10.01.2018 20:00:00 - 16.01.2018 20:00:00 (CET)Limoges, France (7434): Température de l'air 5cm: 10.01.2018 20:00:00 - 16.01.2018 20:00:00 (CET)Limoges, France (7434): Température de l'air -20cm & Température de l'air -100cm: 10.01.2018 20:00:00 - 16.01.2018 20:00:00 (CET)Limoges, France (7434): Vitesse du vent & gusts: 10.01.2018 20:00:00 - 16.01.2018 20:00:00 (CET)Limoges, France (7434): Direction du vent: 10.01.2018 20:00:00 - 16.01.2018 20:00:00 (CET)Limoges, France (7434): reduced air pressure: 10.01.2018 20:00:00 - 16.01.2018 20:00:00 (CET)Limoges, France (7434): visibility: 10.01.2018 20:00:00 - 16.01.2018 20:00:00 (CET)Limoges, France (7434): Ensoleillement: 10.01.2018 20:00:00 - 16.01.2018 20:00:00 (CET)Limoges, France (7434): Quantités de précipitations: 10.01.2018 20:00:00 - 16.01.2018 20:00:00 (CET)
Date & Time tt [°C] td [°C] tt 5cm [°C] tt -20cm [°C] tt -100cm [°C] ff [km/h] ff [knt] fx [km/h] fx [knt] dd ppp [hPa] vv [km] sd [min] rr [mm]
16.01.2018 20:00:00 8,6 8,0 7,7 7,6 8,6 34 18 61 33 WSW 1011,4 7 0 0,4
16.01.2018 19:00:00 8,7 8,1 7,8 7,5 8,6 31 17 66 36 W 1011,7 10 0 0,4
16.01.2018 18:00:00 8,7 7,6 7,4 7,5 8,6 29 16 71 39 W 1012,0 10 0 1,6
16.01.2018 17:00:00 9,4 9,1 9,0 7,4 8,6 31 17 66 35 W 1011,8 2,0 7 0,6
16.01.2018 16:00:00 9,8 9,7 9,5 7,4 8,6 26 14 53 29 WSW 1011,9 14 0 0,2
16.01.2018 15:00:00 9,8 9,8 9,6 7,3 8,6 29 16 61 33 W 1012,4 2,9 0 1,2
16.01.2018 14:00:00 9,8 9,7 9,5 7,2 8,6 31 17 66 35 WSW 1012,8 7 0 0,4
16.01.2018 13:00:00 9,5 9,5 9,0 7,2 8,6 26 14 59 32 WSW 1013,9 5 0 0,6
16.01.2018 12:00:00 9,1 9,0 8,5 7,2 8,6 24 13 58 31 WSW 1014,5 10 0 0,2
16.01.2018 11:00:00 8,7 8,6 8,0 7,2 8,6 26 14 52 28 WSW 1014,7 6 0 0,4
16.01.2018 10:00:00 8,2 8,2 7,9 7,2 8,6 22 12 45 24 WSW 1014,8 10 0 0,8
16.01.2018 09:00:00 8,1 8,1 7,7 7,1 8,6 19 10 48 26 WSW 1014,1 2,1 0 0,6
16.01.2018 08:00:00 8,1 8,0 7,6 7,1 8,6 27 14 54 29 WSW 1013,6 7 0 0,0
16.01.2018 07:00:00 8,4 8,4 7,9 7,0 8,6 23 12 54 29 W 1012,8 60 0 1,1
16.01.2018 06:00:00 8,4 8,4 7,9 7,0 8,6 18 10 59 32 W 1012,0 10 0 1,2
16.01.2018 05:00:00 8,5 8,5 8,0 7,0 8,6 26 14 51 28 W 1012,2 7 0 1,6
16.01.2018 04:00:00 8,5 8,5 7,9 7,0 8,6 21 11 46 25 W 1012,4 2,5 0 2,2
16.01.2018 03:00:00 8,5 8,1 7,9 7,0 8,7 22 12 49 26 WSW 1012,9 60 0 0,0
16.01.2018 02:00:00 8,5 8,2 8,0 6,9 8,6 28 15 57 31 WSW 1012,7 8 0 0,2
16.01.2018 01:00:00 8,7 8,2 7,9 6,9 8,7 31 17 53 29 WSW 1013,0 10 0 0,0
16.01.2018 00:00:00 8,1 8,1 6,8 6,9 8,7 22 12 46 25 SW 1012,8 10 0 1,2
15.01.2018 23:00:00 6,9 6,9 6,6 6,9 8,7 22 12 37 20 SSW 1013,1 1,4 0 0,2
15.01.2018 22:00:00 6,7 6,7 6,2 6,8 8,6 21 11 50 27 SW 1013,7 3,5 0 0,6
15.01.2018 21:00:00 6,5 6,5 6,1 6,9 8,7 31 17 53 29 SSW 1013,2 9 0 0,4
15.01.2018 20:00:00 6,4 6,4 6,1 6,8 8,6 39 21 64 34 SSW 1013,3 3,7 0 0,6
15.01.2018 19:00:00 6,5 6,5 5,9 6,8 8,6 36 19 56 30 SSW 1013,2 2,5 0 0,4
15.01.2018 18:00:00 6,4 6,1 5,9 6,8 8,6 34 18 61 33 SSW 1013,6 7 0 0,2
15.01.2018 17:00:00 6,5 6,1 6,0 6,8 8,7 34 18 60 33 SSW 1014,4 10 0 0,4
15.01.2018 16:00:00 6,7 6,0 6,1 6,8 8,7 31 17 47 26 SSW 1015,4 10 0 0,0
15.01.2018 15:00:00 6,5 5,9 5,9 6,8 8,7 34 18 47 25 SSW 1016,4 10 0 0,2
15.01.2018 14:00:00 6,1 6,0 5,8 6,8 8,7 28 15 45 24 SSW 1017,8 10 0 0,0
15.01.2018 13:00:00 5,5 5,5 5,2 6,8 8,7 27 14 42 23 SSW 1018,8 10 0 0,0
15.01.2018 12:00:00 5,0 5,0 4,3 6,8 8,7 26 14 38 20 SSW 1019,7 0,3 0 0,0
15.01.2018 11:00:00 4,2 4,2 4,0 6,8 8,7 26 14 35 19 S 1020,5 1,5 0 0,0
15.01.2018 10:00:00 4,0 4,0 3,9 6,8 8,7 21 11 35 19 S 1021,3 0,2 0 0,0
15.01.2018 09:00:00 3,8 3,8 3,7 6,9 8,7 21 11 35 19 S 1021,0 0,2 0 0,0
15.01.2018 08:00:00 3,8 3,8 3,6 6,9 8,7 18 10 30 16 S 1021,1 1,0 0 0,0
15.01.2018 07:00:00 3,8 3,8 3,5 6,9 8,7 16 9 23 13 S 1020,4 6 0 0,0
15.01.2018 06:00:00 3,8 3,8 3,3 6,9 8,7 11 6 21 11 S 1021,1 6 0 0,0
15.01.2018 05:00:00 3,6 3,5 1,0 7,0 8,7 16 9 24 13 S 1021,4 10 0 0,0
15.01.2018 04:00:00 3,6 3,5 1,3 7,0 8,7 15 8 24 13 S 1021,6 17 0 0,0
15.01.2018 03:00:00 2,9 2,8 0,2 7,0 8,7 18 10 26 14 S 1021,8 10 0 0,0
15.01.2018 02:00:00 2,9 2,2 0,6 7,0 8,7 9 5 15 8 SSE 1022,1 10 0 0,0
15.01.2018 01:00:00 3,7 2,5 1,2 7,0 8,8 5 3 9 5 - 1022,0 10 0 0,0
15.01.2018 00:00:00 4,5 3,0 3,6 7,0 8,7 5 3 10 5 ESE 1022,0 27 0 0,0
14.01.2018 23:00:00 4,9 3,1 3,9 7,0 8,7 4 2 6 4 SSE 1021,7 10 0 0,0
14.01.2018 22:00:00 5,0 3,0 4,1 7,0 8,7 4 2 7 4 S 1021,3 34 0 0,0
14.01.2018 21:00:00 5,3 3,5 4,8 7,0 8,7 6 4 10 6 SE 1020,7 40 0 0,0
14.01.2018 20:00:00 5,4 3,2 4,8 7,0 8,7 4 2 9 5 S 1020,1 54 0 0,0
14.01.2018 19:00:00 5,4 3,4 5,1 6,9 8,7 5 3 15 8 SSE 1019,3 50 0 0,0
14.01.2018 18:00:00 5,5 3,8 5,3 6,9 8,7 9 5 18 10 SE 1018,6 36 0 0,0
14.01.2018 17:00:00 6,2 4,4 6,1 6,8 8,8 9 5 17 9 SE 1018,0 10 0 0,0
14.01.2018 16:00:00 6,5 4,5 6,7 6,8 8,7 9 5 21 11 S 1017,6 60 0 0,0
14.01.2018 15:00:00 6,7 4,5 6,2 6,8 8,8 11 6 29 15 SSE 1016,7 59 0 0,0
14.01.2018 14:00:00 6,6 5,1 6,7 6,7 8,8 15 8 27 15 SSE 1016,3 41 5 0,0
14.01.2018 13:00:00 6,7 5,3 6,6 6,7 8,8 8 4 14 8 ESE 1016,7 10 0 0,0
14.01.2018 12:00:00 6,3 4,6 6,5 6,7 8,8 9 5 14 8 E 1017,0 10 13 0,0
14.01.2018 11:00:00 5,6 5,2 4,7 6,7 8,8 9 5 12 7 NNE 1016,8 19 11 0,0
14.01.2018 10:00:00 4,7 4,1 3,9 6,7 8,8 4 2 11 6 NE 1016,6 8 0 0,2
14.01.2018 09:00:00 4,3 3,6 3,5 6,7 8,8 7 4 11 6 NNE 1016,4 13 0 0,2
14.01.2018 08:00:00 4,1 2,9 3,5 6,7 8,8 6 4 12 6 NE 1015,9 10 0 0,2
14.01.2018 07:00:00 4,2 2,5 3,4 6,7 8,8 6 3 9 5 ENE 1015,4 24 0 0,0
14.01.2018 06:00:00 4,3 3,1 3,5 6,8 8,8 3 2 9 5 E 1014,9 20 0 0,0
14.01.2018 05:00:00 4,9 3,7 3,6 6,8 8,8 3 2 14 8 S 1014,9 26 0 0,0
14.01.2018 04:00:00 5,3 3,5 4,6 6,8 8,8 5 3 21 11 W 1015,1 36 0 0,0
14.01.2018 03:00:00 5,0 2,5 3,7 6,8 8,8 12 6 16 9 SSW 1015,3 35 0 0,0
14.01.2018 02:00:00 4,8 2,0 3,6 6,8 8,8 8 4 16 8 SSE 1015,5 10 0 0,0
14.01.2018 01:00:00 4,8 1,8 3,7 6,8 8,8 9 5 21 12 S 1015,6 37 0 0,0
14.01.2018 00:00:00 5,5 2,0 4,7 6,8 8,8 18 10 29 16 S 1015,7 44 0 0,0
13.01.2018 23:00:00 5,4 1,9 4,0 6,8 8,8 17 9 24 13 S 1015,5 42 0 0,0
13.01.2018 22:00:00 5,1 1,4 4,1 6,8 8,9 11 6 22 12 S 1015,4 40 0 0,0
13.01.2018 21:00:00 4,9 1,2 4,2 6,8 8,8 12 7 18 10 SSE 1015,3 26 0 0,0
13.01.2018 20:00:00 5,2 1,1 4,4 6,8 8,9 11 6 18 10 SSE 1015,2 32 0 0,0
13.01.2018 19:00:00 5,8 0,9 4,4 6,7 8,8 9 5 20 11 SE 1015,1 41 0 0,0
13.01.2018 18:00:00 5,9 0,8 4,5 6,7 8,8 6 3 11 6 S 1015,2 56 0 0,0
13.01.2018 17:00:00 6,3 1,0 5,7 6,7 8,9 8 5 17 9 SE 1015,1 54 0 0,0
13.01.2018 16:00:00 6,7 1,2 6,6 6,7 8,8 12 6 21 11 SE 1014,9 59 0 0,0
13.01.2018 15:00:00 6,7 1,0 7,1 6,7 8,9 11 6 27 15 SE 1015,1 56 15 0,0
13.01.2018 14:00:00 7,0 1,5 6,4 6,7 8,9 14 8 27 15 SSE 1015,4 47 32 0,0
13.01.2018 13:00:00 5,4 0,8 6,0 6,7 8,9 14 8 27 15 SE 1016,5 45 0 0,0
13.01.2018 12:00:00 4,7 0,6 5,9 6,7 8,9 15 8 29 16 SE 1017,7 10 30 0,0
13.01.2018 11:00:00 3,9 0,8 3,0 6,8 8,9 9 5 18 10 ESE 1018,1 10 39 0,0
13.01.2018 10:00:00 2,3 0,0 1,0 6,9 8,9 9 5 21 12 E 1018,5 31 9 0,0
13.01.2018 09:00:00 1,4 -0,1 0,3 6,9 8,9 10 6 15 8 ENE 1019,0 29 0 0,0
13.01.2018 08:00:00 1,1 -0,1 -0,1 7,0 8,9 9 5 19 10 ENE 1019,6 28 0 0,0
13.01.2018 07:00:00 0,9 -0,1 0,0 7,0 8,9 13 7 19 10 NE 1019,8 29 0 0,0
13.01.2018 06:00:00 1,3 0,1 -0,1 7,1 8,9 11 6 18 10 ENE 1020,6 10 0 0,0
13.01.2018 05:00:00 1,0 0,3 0,0 7,1 8,9 11 6 19 11 ENE 1020,9 10 0 0,0
13.01.2018 04:00:00 1,0 0,6 -0,1 7,2 8,9 9 5 17 9 ENE 1021,9 17 0 0,0
13.01.2018 03:00:00 1,1 0,7 0,2 7,2 8,9 11 6 14 7 ENE 1022,2 10 0 0,0
13.01.2018 02:00:00 1,5 1,2 0,5 7,3 8,9 10 5 16 9 E 1022,9 11 0 0,0
13.01.2018 01:00:00 1,6 1,5 0,6 7,3 8,9 10 5 16 8 ENE 1023,4 8 0 0,0
13.01.2018 00:00:00 1,9 1,8 0,9 7,4 8,9 8 4 15 8 ENE 1024,4 7 0 0,0
12.01.2018 23:00:00 2,4 2,0 1,4 7,4 8,9 9 5 19 10 NE 1024,5 8 0 0,0
12.01.2018 22:00:00 3,1 1,9 0,9 7,4 8,9 13 7 17 9 ENE 1024,7 10 0 0,0
12.01.2018 21:00:00 3,2 1,9 0,6 7,5 8,9 4 2 11 6 NNE 1025,1 10 0 0,0
12.01.2018 20:00:00 3,8 2,2 1,7 7,5 8,9 10 6 14 8 NNE 1024,8 28 0 0,0
12.01.2018 19:00:00 4,1 2,4 2,7 7,4 8,9 9 5 15 8 N 1025,0 20 0 0,0
12.01.2018 18:00:00 4,9 2,6 2,5 7,4 8,9 8 4 9 5 NNE 1024,6 28 0 0,0
12.01.2018 17:00:00 5,6 3,1 4,7 7,4 8,9 5 3 16 8 - 1024,6 10 0 0,0
12.01.2018 16:00:00 6,1 3,4 6,1 7,4 8,9 10 5 16 9 NE 1024,3 49 0 0,0
12.01.2018 15:00:00 5,9 3,6 6,0 7,4 8,9 6 3 12 6 N 1024,5 41 0 0,0
12.01.2018 14:00:00 6,5 2,8 7,1 7,4 9,0 8 4 22 12 E 1024,7 60 6 0,0
12.01.2018 13:00:00 6,8 3,8 6,4 7,4 8,9 15 8 28 15 NE 1024,6 10 46 0,0
12.01.2018 12:00:00 6,0 4,6 5,4 7,4 8,9 16 9 22 12 NNE 1025,4 10 15 0,0
12.01.2018 11:00:00 5,0 4,6 4,7 7,4 8,9 11 6 24 13 N 1025,8 11 24 0,0
12.01.2018 10:00:00 4,4 4,4 4,3 7,4 8,9 11 6 21 11 NNE 1025,6 6 0 0,0
12.01.2018 09:00:00 4,4 4,4 4,2 7,4 8,9 8 4 19 11 N 1025,3 6 0 0,0
12.01.2018 08:00:00 4,5 4,5 4,4 7,4 8,9 11 6 23 12 N 1025,0 6 0 0,4
12.01.2018 07:00:00 4,6 4,6 4,4 7,4 8,9 13 7 23 12 NNW 1024,5 2,5 0 0,0
12.01.2018 06:00:00 4,5 4,5 4,1 7,5 8,9 5 3 18 10 N 1024,1 2,3 0 0,0
12.01.2018 05:00:00 4,4 4,4 4,1 7,5 8,9 8 4 14 8 NNW 1024,0 0,4 0 0,0
12.01.2018 04:00:00 4,2 4,2 4,0 7,5 8,9 8 4 12 6 NNW 1023,9 0,8 0 0,0
12.01.2018 03:00:00 4,0 4,0 3,4 7,5 8,9 7 4 13 7 WNW 1023,7 0,3 0 0,0
12.01.2018 02:00:00 3,8 3,8 3,4 7,6 9,0 6 4 14 7 W 1023,5 1,1 0 0,8
12.01.2018 01:00:00 4,0 4,0 2,9 7,6 8,9 8 4 14 7 WNW 1023,6 5 0 0,8
12.01.2018 00:00:00 3,8 3,8 1,3 7,7 9,0 8 4 14 8 W 1023,3 6 0 0,0
11.01.2018 23:00:00 3,7 3,4 0,6 7,7 9,0 5 3 15 8 - 1022,8 10 0 0,0
11.01.2018 22:00:00 3,8 3,2 0,9 7,7 9,0 10 5 13 7 WNW 1022,5 17 0 0,0
11.01.2018 21:00:00 4,1 3,4 0,1 7,7 9,0 8 4 11 6 W 1022,3 20 0 0,0
11.01.2018 20:00:00 3,7 2,4 0,0 7,7 9,0 5 3 9 5 W 1021,6 15 0 0,0
11.01.2018 19:00:00 4,5 3,0 1,2 7,6 9,0 5 3 7 4 NW 1020,9 10 0 0,0
11.01.2018 18:00:00 5,7 4,0 4,4 7,6 9,0 4 2 19 10 W 1020,0 19 0 0,2
11.01.2018 17:00:00 7,2 3,8 6,9 7,5 9,0 7 4 12 6 S 1018,8 54 58 0,0
11.01.2018 16:00:00 8,1 4,5 8,7 7,5 9,0 10 5 15 8 SSW 1017,9 47 36 0,0
11.01.2018 15:00:00 7,3 3,5 8,7 7,5 9,0 7 4 13 7 SW 1017,3 27 31 0,0
11.01.2018 14:00:00 7,7 4,5 8,0 7,4 9,0 7 4 16 9 SSW 1016,5 20 17 0,0
11.01.2018 13:00:00 7,1 4,6 7,0 7,5 9,0 8 5 19 10 W 1016,6 19 35 0,0
11.01.2018 12:00:00 5,9 4,7 6,2 7,5 9,0 13 7 18 10 SW 1016,7 10 30 0,0
11.01.2018 11:00:00 5,0 4,6 4,7 7,5 9,0 9 5 15 8 S 1016,5 17 7 0,0
11.01.2018 10:00:00 4,3 4,3 4,0 7,5 9,0 10 5 19 11 SSW 1015,8 12 0 0,0
11.01.2018 09:00:00 4,0 4,0 2,2 7,6 9,0 9 5 15 8 SSW 1014,9 18 0 0,0
11.01.2018 08:00:00 3,6 3,6 2,5 7,6 9,0 10 6 18 10 SSW 1014,1 52 0 0,0
11.01.2018 07:00:00 3,9 3,9 3,3 7,6 9,0 8 4 16 8 S 1013,2 10 0 0,2
11.01.2018 06:00:00 4,3 4,2 3,9 7,6 9,0 11 6 26 14 W 1012,5 8 0 0,8
11.01.2018 05:00:00 4,8 4,8 4,6 7,6 9,0 16 8 30 16 WSW 1012,0 7 0 0,4
11.01.2018 04:00:00 5,2 5,2 5,1 7,6 9,0 13 7 26 14 SW 1011,5 1,6 0 0,6
11.01.2018 03:00:00 5,3 5,3 5,0 7,6 9,0 16 9 28 15 SSW 1011,2 4,2 0 0,4
11.01.2018 02:00:00 5,5 5,2 3,9 7,6 9,0 14 8 21 11 SSW 1010,9 20 0 0,0
11.01.2018 01:00:00 5,1 5,0 3,5 7,7 9,0 12 6 20 11 S 1010,9 19 0 0,0
11.01.2018 00:00:00 5,6 5,2 4,7 7,7 9,0 11 6 27 15 S 1011,0 47 0 0,0
10.01.2018 23:00:00 5,6 5,2 4,7 7,7 9,0 8 4 13 7 SSE 1010,9 13 0 0,0
10.01.2018 22:00:00 5,5 4,9 4,7 7,7 9,0 8 4 19 10 SE 1011,0 10 0 0,0
10.01.2018 21:00:00 5,5 4,9 3,8 7,7 9,0 8 4 21 11 SSE 1011,3 10 0 0,0
10.01.2018 20:00:00 5,3 4,6 3,3 7,8 9,1 14 7 20 11 S 1011,6 53 0 0,2

tt = Température de l'air
td = dewpoint
tt 5cm = Température de l'air 5cm
tt -20cm = Température de l'air -20cm
tt -100cm = Température de l'air -100cm
ff = Vitesse du vent
fx = gusts
dd = Direction du vent
ppp = reduced air pressure
vv = visibility
sd = Ensoleillement
rr = Quantités de précipitations

stations d'obs. à proximité